Date,TemperatureHighF,TemperatureAvgF,TemperatureLowF,DewpointHighF,DewpointAvgF,DewpointLowF,HumidityHigh,HumidityAvg,HumidityLow,PressureMaxIn,PressureMinIn,WindSpeedMaxMPH,WindSpeedAvgMPH,GustSpeedMaxMPH,PrecipitationSumIn
2014-1-1,27,20,14,17,13,7,92,73,55,30.40,30.25,4,1,10,0.00
2014-1-2,19,16,8,17,13,6,92,90,87,30.33,29.78,6,3,11,0.00
2014-1-3,8,2,-4,6,-2,-7,90,84,76,30.48,29.73,8,4,14,0.00
2014-1-4,21,10,-4,11,2,-8,86,71,52,30.55,30.34,7,2,11,0.01
2014-1-5,44,28,16,44,23,11,100,83,57,30.35,29.84,8,1,12,0.21
2014-1-6,55,40,22,55,37,14,100,91,61,29.84,29.38,10,3,16,0.52
2014-1-7,21,5,1,17,-5,-10,91,64,46,30.33,29.56,0,0,8,0.00
2014-1-8,18,9,1,6,0,-6,77,67,54,30.54,30.32,1,0,8,0.01
2014-1-9,27,17,10,15,9,5,83,72,57,30.67,30.50,6,1,12,0.00
2014-1-10,34,27,16,34,25,11,100,91,69,30.62,30.26,3,1,8,0.03
2014-1-11,56,49,34,56,49,34,100,99,94,30.26,29.30,9,4,19,0.69
2014-1-12,50,39,30,49,32,25,95,77,65,30.03,29.34,5,2,11,0.01
2014-1-13,45,38,28,37,32,25,91,79,65,30.13,29.90,6,3,13,0.00
2014-1-14,44,42,37,42,40,36,100,93,78,29.91,29.67,5,2,11,0.58
2014-1-15,46,38,29,39,35,29,100,90,69,30.00,29.82,6,1,10,0.01
2014-1-16,37,31,28,36,30,27,98,94,88,29.95,29.86,5,1,9,0.00
2014-1-17,39,30,23,29,26,22,98,86,60,30.00,29.92,6,1,9,0.01
2014-1-18,34,30,23,33,27,20,98,91,81,29.92,29.65,5,1,11,0.02
2014-1-19,30,24,20,24,20,18,94,84,74,29.80,29.61,6,2,12,0.00
2014-1-20,36,30,17,30,24,10,92,76,69,29.89,29.57,8,3,15,0.01
2014-1-21,17,10,5,10,4,-1,88,75,62,30.05,29.89,6,3,11,0.00
2014-1-22,6,1,-7,-1,-6,-11,81,72,62,30.02,29.81,8,4,14,0.00
2014-1-23,16,6,-1,4,-2,-8,74,67,53,30.26,30.01,6,2,13,0.00
2014-1-24,17,9,-1,2,-1,-5,82,64,44,30.36,30.07,4,2,9,0.00
2014-1-25,20,17,10,18,10,1,94,77,61,30.07,29.43,8,4,14,0.00
2014-1-26,20,14,7,14,6,-1,92,73,53,29.86,29.43,5,2,10,0.00
2014-1-27,38,25,13,30,15,-6,87,67,35,30.05,29.63,6,2,10,0.00
2014-1-28,13,9,4,-1,-5,-8,61,51,44,30.35,30.05,5,1,8,0.00
2014-1-29,21,13,6,5,0,-4,86,58,34,30.29,30.06,4,1,10,0.00
2014-1-30,26,16,5,13,3,-3,78,57,41,30.47,30.21,5,2,9,0.00
2014-1-31,36,27,19,22,15,8,82,60,45,30.25,30.10,4,1,8,0.02
2014-2-1,41,34,27,33,25,20,89,70,54,30.35,30.05,8,2,11,0.01
2014-2-2,47,38,32,39,34,28,99,88,63,30.11,29.90,4,1,8,0.06
2014-2-3,33,27,19,28,24,16,94,89,79,30.32,30.10,5,2,8,0.00
2014-2-4,31,23,13,21,17,11,91,79,64,30.50,30.30,4,1,8,0.12
2014-2-5,28,25,19,27,23,18,96,93,78,30.32,29.67,6,2,11,0.00
2014-2-6,23,16,12,18,11,7,94,79,55,30.30,29.98,6,2,10,0.08
2014-2-7,28,19,10,15,10,6,89,68,51,30.31,30.21,5,1,9,0.07
2014-2-8,26,18,8,8,4,2,78,57,37,30.33,30.15,4,1,8,0.01
2014-2-9,27,20,9,19,11,4,94,70,52,30.20,29.98,5,2,10,0.00
2014-2-10,25,18,11,18,10,4,94,73,51,30.27,29.97,7,2,16,0.00
2014-2-11,21,13,6,7,4,1,86,70,53,30.50,30.26,6,2,11,0.00
2014-2-12,24,14,1,17,2,-4,90,63,30,30.59,30.36,6,2,8,0.00
2014-2-13,32,27,19,32,26,16,98,95,89,30.37,29.08,8,4,18,0.00
2014-2-14,36,29,23,32,26,23,98,88,73,29.79,28.97,7,2,13,0.29
2014-2-15,30,27,22,28,23,17,95,86,78,29.82,29.63,8,2,18,0.00
2014-2-16,24,20,14,17,12,8,89,73,56,30.08,29.69,8,4,16,0.00
2014-2-17,26,16,8,8,0,-4,76,50,33,30.40,30.08,8,4,17,0.01
2014-2-18,30,23,17,28,17,-2,96,79,40,30.36,29.97,7,2,10,0.00
2014-2-19,36,30,21,36,28,19,99,93,76,30.13,29.72,8,1,13,0.21
2014-2-20,44,37,29,34,28,22,98,73,41,30.25,29.99,6,2,8,0.34
2014-2-21,43,36,33,43,36,33,100,99,98,30.08,29.68,6,2,11,0.19
2014-2-22,49,41,33,34,26,21,99,57,36,30.00,29.89,8,2,13,0.01
2014-2-23,46,41,35,30,27,21,66,57,44,30.01,29.79,3,0,8,0.00
2014-2-24,39,27,19,28,13,6,67,56,43,30.03,29.78,6,3,14,0.00
2014-2-25,26,19,12,16,9,5,77,65,56,30.05,29.92,6,1,11,0.00
2014-2-26,26,16,6,12,4,-5,78,60,36,29.97,29.83,5,1,10,0.00
2014-2-27,26,14,5,12,1,-8,73,56,42,30.04,29.62,9,2,15,0.00
2014-2-28,18,9,-1,0,-5,-9,70,53,38,30.47,30.03,7,2,12,0.00
2014-3-1,30,21,8,16,7,-4,60,54,48,30.47,30.15,8,2,18,0.00
2014-3-2,32,28,18,22,17,11,78,65,57,30.15,30.01,7,2,13,0.00
2014-3-3,18,12,7,11,0,-7,75,58,45,30.36,30.06,7,4,13,0.00
2014-3-4,26,15,4,11,3,-5,81,59,39,30.44,30.27,4,1,8,0.00
2014-3-5,27,22,13,15,10,6,75,61,48,30.51,30.24,4,1,8,0.00
2014-3-6,29,16,4,6,1,-5,81,53,23,30.65,30.51,5,2,10,0.00
2014-3-7,35,26,13,27,17,2,84,70,56,30.53,29.97,5,1,8,0.00
2014-3-8,46,37,30,32,29,27,98,75,51,29.97,29.80,5,2,10,0.00
2014-3-9,36,30,25,28,19,13,82,63,45,30.00,29.88,7,2,13,0.00
2014-3-10,42,35,27,31,24,14,75,64,55,29.92,29.60,4,1,8,0.00
2014-3-11,52,41,35,38,33,30,85,74,53,29.63,29.53,4,1,8,0.00
2014-3-12,47,40,18,42,35,16,99,85,59,29.56,29.03,11,4,21,0.26
2014-3-13,19,14,10,16,7,2,91,74,51,30.06,29.12,12,6,29,0.00
2014-3-14,38,23,9,27,13,4,83,65,45,30.24,29.94,9,3,15,0.00
2014-3-15,51,41,32,35,30,23,80,66,48,29.97,29.75,6,3,11,0.01
2014-3-16,32,24,18,26,11,-1,81,57,40,30.22,29.97,8,3,14,0.00
2014-3-17,30,20,14,10,6,2,67,54,37,30.18,30.07,6,2,10,0.00
2014-3-18,40,28,17,17,6,2,63,41,20,30.33,30.16,6,1,9,0.00
2014-3-19,40,32,24,33,23,11,97,72,47,30.35,29.91,11,4,16,0.56
2014-3-20,47,39,34,41,32,24,100,79,51,29.92,29.70,5,2,11,0.17
2014-3-21,41,34,26,25,22,19,80,61,45,30.07,29.83,6,2,10,0.00
2014-3-22,56,37,24,39,28,20,87,70,42,30.08,29.76,10,3,18,0.00
2014-3-23,33,29,18,26,18,7,80,64,48,30.13,29.97,7,3,12,0.00
2014-3-24,29,20,14,10,7,4,78,57,38,30.22,30.10,7,3,16,0.00
2014-3-25,35,24,14,18,13,8,80,62,44,30.19,29.90,8,2,11,0.00
2014-3-26,30,25,18,18,11,2,76,56,39,30.16,29.77,10,5,18,0.00
2014-3-27,41,27,13,24,11,6,81,53,28,30.41,30.16,6,2,13,0.00
2014-3-28,48,40,33,48,36,22,100,86,62,30.27,29.99,6,3,11,0.27
2014-3-29,48,42,36,48,41,36,100,95,79,30.23,29.83,6,2,15,0.85
2014-3-30,43,39,33,42,39,32,99,98,96,29.83,29.57,8,5,16,0.84
2014-3-31,44,34,29,37,31,27,99,89,69,30.08,29.71,10,5,16,0.21
2014-4-1,54,41,29,38,32,26,89,70,48,30.14,30.00,7,2,11,0.00
2014-4-2,59,44,34,41,36,32,99,75,43,30.12,30.03,6,2,8,0.00
2014-4-3,54,44,34,35,28,23,84,56,35,30.15,30.05,6,2,11,0.00
2014-4-4,46,40,34,34,30,26,97,71,51,30.10,29.79,14,6,22,0.05
2014-4-5,49,40,33,41,32,23,100,75,48,30.01,29.74,6,2,12,0.07
2014-4-6,55,41,29,25,23,21,78,52,29,30.22,30.01,6,2,13,0.00
2014-4-7,51,44,36,43,27,16,98,55,29,30.22,29.75,12,4,17,0.08
2014-4-8,62,49,40,56,45,34,100,85,58,29.75,29.34,9,3,12,0.12
2014-4-9,54,44,34,39,29,13,89,59,31,30.02,29.59,9,3,16,0.00
2014-4-10,58,45,30,36,26,18,66,49,34,30.18,30.01,11,4,17,0.00
2014-4-11,67,54,45,53,42,34,98,68,45,30.04,29.93,5,2,11,0.21
2014-4-12,66,52,39,49,40,32,100,72,29,30.23,29.99,5,1,9,0.01
2014-4-14,70,63,59,57,55,53,87,75,63,29.85,29.82,10,6,16,0.00
2014-4-15,60,52,28,59,51,28,100,97,87,29.84,29.50,10,6,21,1.08
2014-4-16,37,30,23,28,21,15,98,70,48,30.62,29.83,9,4,15,0.14
2014-4-17,47,35,26,29,22,19,88,59,37,30.77,30.61,7,3,12,0.00
2014-4-18,46,37,27,33,28,23,89,72,53,30.62,30.25,6,2,8,0.00
2014-4-19,58,47,35,37,32,27,84,59,38,30.39,30.21,9,3,17,0.00
2014-4-20,59,47,36,29,25,20,63,45,24,30.50,30.32,7,2,10,0.00
2014-4-21,68,51,33,37,26,12,82,46,12,30.32,29.85,7,2,11,0.00
2014-4-22,71,56,45,53,45,37,93,71,39,29.85,29.48,7,2,15,0.02
2014-4-23,53,45,40,51,40,30,96,83,66,29.76,29.47,9,4,20,0.06
2014-4-24,53,44,35,30,21,16,71,43,23,30.02,29.76,9,5,19,0.00
2014-4-25,64,49,33,32,25,14,65,41,15,30.05,29.80,7,3,15,0.00
2014-4-26,59,46,39,48,42,31,99,87,55,29.87,29.71,4,1,8,0.78
2014-4-27,50,44,39,41,38,34,90,78,65,30.13,29.85,8,3,14,0.00
2014-4-28,60,49,36,40,37,33,89,65,44,30.17,30.02,7,3,13,0.00
2014-4-29,46,42,38,40,38,36,94,83,71,30.45,30.17,9,6,15,0.06
2014-4-30,45,40,37,45,39,35,99,97,94,30.46,30.07,10,5,17,1.44
2014-5-1,72,57,45,62,52,43,100,86,51,30.07,29.66,6,2,9,0.49
2014-5-2,62,54,45,46,40,36,83,61,40,29.82,29.69,6,2,10,0.00
2014-5-3,65,54,42,47,42,36,85,65,40,29.86,29.72,8,2,11,0.00
2014-5-4,62,52,45,48,38,28,96,64,33,29.74,29.58,7,3,17,0.07
2014-5-5,60,52,44,41,38,35,81,62,42,29.89,29.73,9,4,18,0.00
2014-5-6,62,52,43,42,35,29,85,55,33,30.08,29.87,6,2,13,0.00
2014-5-7,63,53,40,36,31,28,70,46,28,30.23,30.08,6,1,8,0.00
2014-5-8,55,52,48,54,47,35,100,85,55,30.18,30.09,4,1,8,0.02
2014-5-9,58,55,52,58,55,52,100,100,100,30.19,30.03,8,3,12,0.27
2014-5-10,79,63,58,68,61,58,100,93,58,30.03,29.77,7,2,11,0.35
2014-5-11,76,65,54,60,42,32,96,46,21,30.05,29.83,5,2,14,0.00
2014-5-12,84,69,55,58,46,34,74,45,25,30.10,29.99,6,2,11,0.00
2014-5-13,68,61,50,58,48,43,79,65,50,30.26,29.99,6,3,10,0.00
2014-5-14,71,57,45,58,48,39,98,74,46,30.29,30.21,7,3,10,0.00
2014-5-15,68,63,57,66,62,56,100,99,89,30.26,30.09,7,4,12,0.10
2014-5-16,66,64,62,65,64,62,100,100,98,30.09,29.77,12,7,21,0.72
2014-5-17,65,56,46,64,47,40,100,75,44,30.11,29.76,11,1,14,0.39
2014-5-18,61,52,42,41,37,33,86,59,39,30.18,30.10,5,2,12,0.00
2014-5-19,65,53,41,44,38,32,79,59,39,30.19,30.06,5,1,13,0.00
2014-5-20,70,60,48,47,42,35,77,56,30,30.12,29.97,6,1,16,0.00
2014-5-21,73,62,46,55,48,42,90,63,36,29.98,29.87,5,1,10,0.00
2014-5-22,58,55,53,56,54,51,100,97,81,29.88,29.78,5,1,9,0.11
2014-5-23,64,56,53,58,55,53,100,96,77,29.94,29.85,2,0,8,0.02
2014-5-24,63,56,51,56,53,51,100,91,72,30.07,29.92,2,0,8,0.09
2014-5-25,74,62,49,59,52,45,100,74,37,30.09,30.00,3,0,9,0.00
2014-5-26,82,69,55,59,55,50,93,64,40,30.03,29.84,3,0,8,0.00
2014-5-27,83,70,57,67,60,54,100,73,45,29.87,29.70,4,1,8,0.28
2014-5-28,57,50,46,57,49,44,100,96,90,30.20,29.80,3,1,11,0.24
2014-5-29,64,53,39,50,45,39,100,77,51,30.24,30.12,1,0,8,0.00
2014-5-30,71,58,49,56,50,45,98,77,46,30.15,30.00,0,0,8,0.02
2014-5-31,65,57,48,54,51,48,100,81,60,30.30,30.07,0,0,8,0.00
2014-6-1,72,60,43,55,46,37,100,64,29,30.36,30.23,0,0,8,0.00
2014-6-2,78,66,52,61,53,40,83,65,47,30.25,29.99,0,0,8,0.00
2014-6-3,84,69,59,72,64,55,100,85,63,30.01,29.79,0,0,8,0.50
2014-6-4,75,65,58,65,59,52,100,83,49,29.84,29.73,0,0,8,0.03
2014-6-5,68,61,57,62,57,51,100,88,66,29.77,29.64,0,0,8,0.17
2014-6-6,69,60,54,58,53,49,91,79,60,29.93,29.76,0,0,8,0.00
2014-6-7,76,65,53,63,56,51,95,74,51,29.99,29.90,0,0,8,0.00
2014-6-8,80,69,55,65,58,53,98,71,43,29.95,29.84,0,0,8,0.00
2014-6-9,63,61,60,61,59,54,100,93,75,29.98,29.88,0,0,8,0.10
2014-6-10,74,66,60,70,65,60,100,95,78,30.02,29.93,0,0,8,0.00
2014-6-11,64,60,57,63,58,53,98,92,83,30.13,30.02,0,0,8,0.13
2014-6-12,66,60,55,66,60,53,100,97,86,30.11,29.96,0,0,8,0.02
2014-6-13,69,65,62,69,65,62,100,100,99,29.96,29.74,0,0,8,0.89
2014-6-14,68,62,54,64,57,49,100,85,69,29.99,29.76,0,0,8,0.00
2014-6-15,69,61,52,59,55,51,97,83,67,30.09,29.98,0,0,8,0.00
2014-6-16,78,66,53,62,56,49,100,73,38,30.16,30.02,0,0,8,0.00
2014-6-17,84,73,59,72,65,56,97,77,56,30.05,29.83,0,0,8,0.00
2014-6-18,79,72,63,70,66,61,100,83,66,29.97,29.75,0,0,8,0.02
2014-6-19,75,68,61,68,61,50,100,80,54,29.99,29.93,0,0,8,0.06
2014-6-20,70,62,51,58,52,46,95,71,45,30.00,29.90,0,0,8,0.00
2014-6-21,72,61,46,56,50,44,96,70,44,29.99,29.89,0,0,8,0.00
2014-6-22,76,64,51,58,53,49,96,71,46,30.03,29.93,0,0,8,0.00
2014-6-23,78,67,54,64,57,51,97,74,41,30.14,30.02,0,0,8,0.00
2014-6-24,76,67,58,65,60,56,98,77,59,30.14,29.99,0,0,8,0.00
2014-6-25,80,70,62,73,66,58,98,88,74,30.01,29.82,0,0,8,0.14
2014-6-26,78,71,64,72,67,62,100,90,75,29.96,29.78,0,0,8,0.29
2014-6-27,80,70,62,66,62,56,100,78,47,30.19,29.96,0,0,8,0.00
2014-6-28,81,69,55,67,61,54,100,79,46,30.26,30.20,0,0,8,0.00
2014-6-29,80,70,58,70,62,55,95,78,52,30.24,30.09,0,0,8,0.00
2014-6-30,79,70,60,69,62,55,90,77,64,30.10,29.92,0,0,8,0.00
2014-7-1,84,75,65,75,70,63,100,85,69,29.94,29.78,0,0,8,0.00
2014-7-2,85,74,68,79,71,68,100,92,78,29.91,29.79,0,0,8,1.18
2014-7-3,83,73,66,77,71,66,100,95,79,30.01,29.85,0,0,8,1.52
2014-7-4,66,63,59,66,63,58,100,99,96,29.98,29.88,0,0,8,0.27
2014-7-5,74,65,57,59,54,50,99,70,45,30.11,29.94,0,0,8,0.00
2014-7-6,77,68,56,62,57,52,90,68,49,30.06,29.89,0,0,8,0.00
2014-7-7,82,73,66,72,66,60,100,79,65,29.89,29.69,0,0,8,0.03
2014-7-8,82,72,64,75,69,64,100,91,75,29.80,29.63,0,0,8,0.32
2014-7-9,80,71,62,72,67,62,100,89,60,29.93,29.69,0,0,8,0.82
2014-7-10,74,66,58,65,61,57,100,85,57,30.15,29.93,0,0,8,0.01
2014-7-11,79,68,58,62,58,53,93,72,45,30.22,30.14,0,0,8,0.00
2014-7-12,81,71,60,69,63,58,100,78,56,30.22,30.10,0,0,8,0.00
2014-7-13,78,70,65,73,67,60,100,90,75,30.10,29.86,0,0,8,0.33
2014-7-14,76,70,67,72,70,67,100,98,86,29.90,29.83,0,0,8,0.33
2014-7-15,78,73,69,75,72,69,100,97,86,29.83,29.71,0,0,8,0.16
2014-7-16,73,66,60,70,64,60,100,93,71,29.89,29.71,0,0,8,2.10
2014-7-17,76,65,56,65,59,54,95,82,60,30.10,29.88,0,0,8,0.00
2014-7-18,75,64,54,61,57,52,96,78,50,30.24,30.11,0,0,8,0.00
2014-7-19,72,63,56,64,59,54,99,87,69,30.26,30.19,0,0,8,0.00
2014-7-20,74,65,57,65,59,54,99,82,60,30.20,30.11,0,0,8,0.00
2014-7-21,80,68,56,68,63,56,100,85,62,30.20,30.12,0,0,8,0.00
2014-7-22,83,73,62,73,68,62,100,86,67,30.15,29.99,0,0,8,0.00
2014-7-23,84,74,67,77,71,67,100,90,74,29.99,29.73,2,0,8,0.43
2014-7-24,74,68,62,68,63,56,100,85,63,29.91,29.76,0,0,8,0.06
2014-7-25,76,65,53,65,59,52,99,81,57,30.03,29.91,0,0,8,0.00
2014-7-26,74,67,59,67,62,58,100,86,65,29.99,29.88,0,0,8,0.00
2014-7-27,78,70,65,73,69,65,100,96,78,29.90,29.65,0,0,8,0.82
2014-7-28,76,69,59,72,67,58,100,94,73,29.65,29.44,0,0,8,0.20
2014-7-29,70,62,55,60,57,54,97,83,61,29.96,29.63,0,0,8,0.00
2014-7-30,73,64,56,61,57,53,98,81,55,30.04,29.95,0,0,8,0.00
2014-7-31,75,65,57,65,61,56,98,86,68,30.15,30.03,6,1,10,0.00
2014-8-1,79,68,62,72,66,62,100,93,69,30.20,30.14,0,0,8,0.11
2014-8-2,71,65,61,65,63,60,100,93,75,30.20,30.09,0,0,8,0.00
2014-8-3,72,65,60,66,63,60,100,93,77,30.13,30.02,0,0,8,0.01
2014-8-4,78,69,62,70,66,62,100,90,69,30.06,30.00,0,0,8,0.00
2014-8-5,81,70,60,70,65,60,100,86,59,30.04,29.88,0,0,8,0.38
2014-8-6,75,66,58,68,63,58,100,90,68,29.92,29.82,0,0,8,0.00
2014-8-7,75,64,56,65,58,53,96,80,62,30.00,29.88,0,0,8,0.00
2014-8-8,74,65,54,63,58,53,97,81,62,30.08,30.00,1,0,8,0.00
2014-8-9,78,67,55,66,60,55,99,80,56,30.13,30.06,1,0,8,0.00
2014-8-10,81,67,57,68,61,56,99,81,52,30.15,30.08,2,0,8,0.00
2014-8-11,81,69,59,68,62,58,97,79,52,30.14,30.07,4,1,8,0.00
2014-8-12,73,67,61,68,65,59,99,93,75,30.10,29.89,6,2,11,0.00
2014-8-13,70,66,60,69,65,59,100,97,85,29.90,29.63,7,1,13,1.48
2014-8-14,70,62,54,60,56,52,98,80,55,29.88,29.74,0,0,8,0.02
2014-8-15,63,57,49,57,54,48,100,90,74,29.97,29.86,0,0,8,0.00
2014-8-16,69,57,52,60,54,52,98,91,65,30.01,29.95,0,0,8,0.00
2014-8-20,76,70,66,68,65,62,90,85,76,30.01,29.97,3,0,8,0.00
2014-8-21,73,67,62,68,64,60,100,89,77,30.05,30.00,4,1,8,0.02
2014-8-22,69,64,62,64,62,58,97,91,81,30.07,30.01,3,1,8,0.00
2014-8-23,70,64,57,63,60,56,99,88,70,30.13,30.05,3,0,8,0.00
2014-8-24,78,64,53,65,59,52,100,86,61,30.16,30.10,2,0,8,0.00
2014-8-25,83,68,55,69,62,55,100,84,52,30.19,30.11,1,0,8,0.00
2014-8-26,83,70,58,70,64,58,100,83,54,30.16,30.04,3,0,8,0.00
2014-8-27,83,72,63,74,68,62,100,88,66,30.05,29.84,5,1,15,0.71
2014-8-28,74,64,57,66,59,53,100,83,58,30.06,29.84,1,0,8,0.00
2014-8-29,72,62,50,62,56,49,99,81,60,30.25,30.05,3,0,8,0.00
2014-8-30,72,64,55,65,60,54,100,88,70,30.27,30.13,5,2,10,0.00
2014-8-31,78,70,67,74,68,64,100,95,86,30.14,29.94,3,1,8,0.39
2014-9-1,81,73,66,75,71,66,100,93,74,29.99,29.90,3,0,8,0.00
2014-9-2,84,77,69,76,72,69,100,87,71,29.92,29.73,4,1,8,0.00
2014-9-3,77,69,59,71,63,57,95,82,62,30.10,29.73,2,0,8,0.00
2014-9-4,80,68,56,67,61,54,99,80,57,30.20,30.10,4,1,8,0.00
2014-9-5,81,72,62,75,69,62,100,89,78,30.16,29.98,4,1,9,0.00
2014-9-6,84,73,61,77,70,58,100,92,74,29.98,29.78,5,1,11,0.00
2014-9-7,73,63,53,64,58,51,100,83,53,30.21,29.90,1,0,8,0.05
2014-9-8,71,62,52,61,56,51,98,82,61,30.36,30.21,4,1,8,0.00
2014-9-9,68,60,52,61,56,50,96,87,78,30.32,30.18,3,0,8,0.00
2014-9-10,72,62,53,62,57,52,100,87,66,30.18,30.01,3,1,8,0.00
2014-9-11,73,65,57,70,64,54,99,94,84,30.01,29.80,5,2,10,0.00
2014-9-12,63,57,50,55,52,48,93,82,69,30.22,29.97,2,0,11,0.00
2014-9-13,60,53,48,56,51,45,100,92,80,30.24,30.12,5,1,14,0.20
2014-9-14,61,52,44,51,46,42,98,83,58,30.28,30.16,2,0,10,0.00
2014-9-15,64,53,42,50,46,41,99,80,51,30.25,30.09,1,0,8,0.00
2014-9-16,64,56,51,59,53,46,100,91,74,30.09,29.97,1,0,8,0.16
2014-9-17,67,54,44,55,49,43,100,84,50,30.07,29.97,2,0,8,0.00
2014-9-18,69,56,44,56,50,43,100,84,54,30.13,29.96,1,0,8,0.00
2014-9-19,59,51,42,51,44,39,98,78,56,30.40,30.13,4,1,8,0.00